Tracking 18852 objects as of 23-Nov-2017
HD Live streaming from Space Station
objects crossing your sky now

FLOCK 2EP 3

Track FLOCK 2EP 3 now!
10-day predictions
FLOCK 2EP 3 is classified as:


NORAD ID: 41480
Int'l Code: 1998-067JA
Perigee: 338.6 km
Apogee: 343.0 km
Inclination: 51.6 °
Period: 91.2 minutes
Semi major axis: 6711 km
RCS: Unknown
Launch date: November 20, 1998
Source: United States (US)
Launch site: TYURATAM MISSILE AND SPACE COMPLEX (TTMTR)
aabbcc
Your satellite tracking list
Your tracking list is empty




NASA's NSSDC Master Catalog

Two Line Element Set (TLE):
1 41480U 98067JA  17326.38639458  .00061205  00000-0  34070-3 0  9993
2 41480  51.6273 284.8629 0003273  78.3135 281.8233 15.78854042 86751
Source of the keplerian elements: AFSPC